Regional Weather Roundup
Issued by NWS

Home | Current Version | Previous Version | Text Only | Print | Product List | Glossary Off
Versions: 1 2 3 4 5 6 7 8 9 10 11 12 13 14 15 16 17 18 19 20 21 22 23 24 25 26 27 28 29 30 31 32 33 34 35 36 37 38 39 40 41 42 43 44 45 46 47 48 49 50

000
ASUS43 KLMK 310710
RWRKY
KENTUCKY REGIONAL WEATHER ROUNDUP
NATIONAL WEATHER SERVICE LOUISVILLE KY
200 AM EST SAT JAN 31 2015

NOTE "FAIR" INDICATES FEW OR NO CLOUDS BELOW 12,000 FEET
WITH NO SIGNIFICANT WEATHER AND/OR OBSTRUCTIONS TO VISIBILITY.

KYZ001>023-026-027-061>063-070>075-310800-
WESTERN AND SOUTH CENTRAL KENTUCKY

CITY           SKY/WX    TMP DP  RH WIND       PRES   REMARKS
PADUCAH        MOCLDY    26  22  84 CALM      30.42S
HENDERSON      PTCLDY    21  16  79 CALM      30.42F
OWENSBORO      PTCLDY    24  21  88 CALM      30.42F
HOPKINSVILLE   PTCLDY    28  21  73 CALM      30.41F
BOWLING GREEN  CLEAR     25  19  78 CALM      30.42F
GLASGOW        PTCLDY    22  19  90 CALM      30.41F
$$

KYZ024-025-028>034-038-045-046-053-310800-
NORTH CENTRAL KENTUCKY

CITY           SKY/WX    TMP DP  RH WIND       PRES   REMARKS
LOUISVILLE/SDF CLEAR     27  16  63 E3        30.43F
LOUISVILLE/LOU CLEAR     25  15  66 CALM      30.43F
FORT KNOX      CLEAR     21  16  81 CALM      30.40F
$$

KYZ035>037-039>044-047>052-055>060-089>105-310800-
NORTHEAST KENTUCKY

CITY           SKY/WX    TMP DP  RH WIND       PRES   REMARKS
LEXINGTON      CLEAR     21  13  71 SE5       30.41S WCI  15
COVINGTON      CLEAR     21  14  74 CALM      30.41S
FRANKFORT      CLEAR     17  13  84 CALM      30.41S
$$

KYZ054-064>069-076>088-106>120-310800-
SOUTHEAST KENTUCKY

CITY           SKY/WX    TMP DP  RH WIND       PRES   REMARKS
JACKSON        CLEAR     22  10  60 CALM      30.38F
LONDON         CLEAR     22  14  71 CALM      30.39F
SOMERSET       CLEAR     21  18  86 CALM      30.42F
MIDDLESBORO    CLEAR     20  19  93 CALM      30.41S
MONTICELLO     SUNNY     16  13  88 CALM      30.44F
$$




USA.gov is the U.S. government's official web portal to all federal, state and local government web resources and services.